Location: Newark
(16.3678°N, 77.8722°E)
Time: 05:37:28
(UTC+00:00)

Explorer 7 - All Passes

Search period start: 13 December 2019 00:00
Search period end: 23 December 2019 00:00
Orbit: 485 x 680 km, 50.3° (Epoch: 12 December)

Date Brightness Start Highest point End Pass type
(mag) Time Alt. Az. Time Alt. Az. Time Alt. Az.
13 Dec - 06:50:34 10° S 06:54:24 29° SE 06:58:25 10° ENE daylight
13 Dec - 08:31:14 10° W 08:34:54 24° NW 08:38:44 10° N daylight
13 Dec - 17:05:28 10° NNW 17:09:56 46° NE 17:14:10 10° ESE night (unlit)
13 Dec - 18:48:04 10° W 18:50:07 13° WSW 18:52:07 10° SSW night (unlit)
14 Dec - 06:54:54 10° SSW 06:59:13 59° SE 07:03:48 10° NE daylight
14 Dec - 08:37:46 10° WNW 08:40:03 13° NW 08:42:23 10° NNW daylight
14 Dec - 17:10:13 10° NW 17:14:53 88° WSW 17:19:16 10° SE night (unlit)
15 Dec - 06:59:44 10° SW 07:04:06 69° NW 07:08:46 10° NNE daylight
15 Dec - 15:35:55 10° N 15:39:04 17° NE 15:42:06 10° E night (unlit)
15 Dec - 17:15:20 10° NW 17:19:44 43° SW 17:23:54 10° SSE night (unlit)
16 Dec - 05:25:53 10° SSE 05:28:48 18° ESE 05:31:50 10° E daylight
16 Dec - 07:05:04 10° WSW 07:09:06 34° NW 07:13:21 10° NNE daylight
16 Dec - 15:39:57 10° NNW 15:44:10 31° NE 15:48:10 10° ESE night (unlit)
16 Dec - 17:21:00 10° WNW 17:24:32 22° SW 17:27:56 10° S night (unlit)
17 Dec - 05:29:41 10° SSW 05:33:35 35° SE 05:37:43 10° ENE daylight
17 Dec - 07:10:58 10° W 07:14:11 19° NW 07:17:30 10° N daylight
17 Dec - 15:44:27 10° NNW 15:49:10 58° NE 15:53:36 10° SE night (unlit)
17 Dec - 17:28:12 10° WSW 17:29:17 11° WSW 17:30:22 10° SW night (unlit)
18 Dec - 05:34:11 10° SSW 05:38:25 74° SE 05:42:57 10° NE daylight
18 Dec - 07:18:21 10° NW 07:19:21 11° NW 07:20:23 10° NNW daylight
18 Dec - 14:11:15 10° NNE 14:13:09 12° NE 14:15:01 10° ENE visible
18 Dec - 15:49:20 10° NW 15:54:05 71° SW 15:58:34 10° SSE night (unlit)
19 Dec - 04:02:44 10° SE 04:03:15 10° ESE 04:03:46 10° ESE daylight
19 Dec - 05:39:11 10° SW 05:43:20 54° NW 05:47:47 10° NNE daylight
19 Dec - 14:14:38 10° N 14:18:19 21° NE 14:21:52 10° E visible
19 Dec - 15:54:35 10° WNW 15:58:54 35° SW 16:03:01 10° SSE night (unlit)
20 Dec - 04:04:50 10° S 04:08:00 21° SE 04:11:19 10° ENE daylight
20 Dec - 05:44:40 10° WSW 05:48:21 27° NW 05:52:14 10° NNE daylight
20 Dec - 14:18:52 10° NNW 14:23:22 38° NE 14:27:42 10° ESE visible
20 Dec - 16:00:28 10° W 16:03:41 18° WSW 16:06:49 10° SSW night (unlit)
21 Dec - 04:08:53 10° SSW 04:12:47 43° SE 04:16:58 10° NE daylight
21 Dec - 05:50:54 10° W 05:53:28 15° NW 05:56:07 10° N daylight
21 Dec - 14:23:30 10° NW 14:28:20 73° NE 14:32:58 10° SE visible
22 Dec - 04:13:32 10° SW 04:17:39 88° NW 04:22:04 10° NE daylight
22 Dec - 12:49:39 10° N 12:52:24 15° NE 12:55:07 10° ENE visible
22 Dec - 14:28:28 10° NW 14:33:13 57° SW 14:37:46 10° SSE visible
